Rifle, CO

2:52 PM MDT on September 25, 2016 (GMT -0600)
Garfield County Regional

Weather History for KRIL - November, 2011

Change the Weather History Date:

Tuesday, November 8, 2011

  Actual Average Record
Temperature  
Mean Temperature 34 °F 39 °F  
Max Temperature 44 °F 52 °F 71 °F (1931)
Min Temperature 23 °F 26 °F 9 °F (1955)
Degree Days  
Heating Degree Days 31 26  
Month to date heating degree days 196  
Since 1 July heating degree days 840  
Cooling Degree Days 0 0  
Month to date cooling degree days 0  
Year to date cooling degree days 541  
Moisture  
Dew Point 21 °F    
Average Humidity 69    
Maximum Humidity 92    
Minimum Humidity 37    
Precipitation  
Precipitation 0.00 in 0.04 in 0.95 in (1944)
Month to date precipitation 0.41  
Year to date precipitation 12.77  
Sea Level Pressure  
Sea Level Pressure 30.23 in    
Wind  
Wind Speed 2 mph (SW)    
Max Wind Speed 10 mph    
Max Gust Speed -    
Visibility 10 miles    
Events      
T = Trace of Precipitation, MM = Missing Value Source: NWS Daily Summary

Daily Weather History Graph

Daily Weather History Graph

Search for Another Location

Airport or City:

Trip Planner

Search our weather history database for the weather conditions in past years. The results will help you decide how hot, cold, wet, or windy it might be!

Date:

Astronomy

Nov. 08, 2011 Rise Set
Actual Time 6:46 AM MST 5:01 PM MST
Civil Twilight 6:18 AM MST 5:30 PM MST
Nautical Twilight 5:46 AM MST 6:02 PM MST
Astronomical Twilight 5:14 AM MST 6:33 PM MST
Moon 3:43 PM MST (11/8) 4:48 AM MST (11/8)
Length of Visible Light 11h 11m
Length of Day
10h 15m
Waxing Gibbous, 96% of the Moon is Illuminated
Nov 8
Waxing Gibbous
Nov 10
Full
Nov 18
Last Quarter
Nov 24
New
Dec 2
First Quarter

Hourly Weather History & Observations

Time (MST) Temp. Windchill Dew Point Humidity Pressure Visibility Wind Dir Wind Speed Gust Speed Precip Events Conditions
12:53 AM 26.1 °F - 21.9 °F 84% 30.05 in 10.0 mi Calm Calm - N/A   Scattered Clouds
1:53 AM 27.0 °F 23.0 °F 23.0 °F 85% 30.06 in 10.0 mi ESE 3.5 mph - N/A   Overcast
2:53 AM 27.0 °F 23.0 °F 24.1 °F 89% 30.07 in 10.0 mi ESE 3.5 mph - N/A   Overcast
3:53 AM 28.0 °F - 24.1 °F 85% 30.09 in 10.0 mi Calm Calm - N/A   Overcast
4:53 AM 26.1 °F - 24.1 °F 92% 30.13 in 10.0 mi Calm Calm - N/A   Overcast
5:53 AM 26.1 °F - 21.9 °F 84% 30.17 in 10.0 mi Calm Calm - N/A   Overcast
6:53 AM 26.1 °F - 19.9 °F 78% 30.21 in 10.0 mi Calm Calm - N/A   Overcast
7:53 AM 28.0 °F - 24.1 °F 85% 30.23 in 10.0 mi Calm Calm - N/A   Clear
8:53 AM 32.0 °F - 25.0 °F 75% 30.24 in 10.0 mi Calm Calm - N/A   Clear
9:53 AM 36.0 °F - 24.1 °F 62% 30.25 in 10.0 mi Calm Calm - N/A   Clear
10:53 AM 39.0 °F - 19.9 °F 46% 30.24 in 10.0 mi Calm Calm - N/A   Clear
11:53 AM 41.0 °F 36.4 °F 19.9 °F 43% 30.22 in 10.0 mi WNW 6.9 mph - N/A   Clear
1:53 PM 42.1 °F 40.2 °F 18.0 °F 38% 30.20 in 10.0 mi SW 3.5 mph - N/A   Clear
2:53 PM 44.1 °F 39.5 °F 19.0 °F 37% 30.19 in 10.0 mi West 8.1 mph - N/A   Clear
4:53 PM 39.0 °F 32.3 °F 17.1 °F 41% 30.27 in 10.0 mi NW 10.4 mph - N/A   Clear
6:53 PM 34.0 °F 31.0 °F 19.0 °F 54% 30.35 in 10.0 mi West 3.5 mph - N/A   Clear
7:53 PM 30.0 °F 24.1 °F 19.0 °F 64% 30.38 in 10.0 mi SW 5.8 mph - N/A   Clear
8:53 PM 27.0 °F - 19.9 °F 75% 30.41 in 10.0 mi Calm Calm - N/A   Clear
10:53 PM 24.1 °F - 19.0 °F 81% 30.44 in 10.0 mi Calm Calm - N/A   Clear
11:53 PM 23.0 °F 18.4 °F 18.0 °F 81% 30.45 in 10.0 mi SSE 3.5 mph - N/A   Clear